Regional Weather Roundup
Issued by NWS Midland/Odessa, TX

Home | Current Version | Previous Version | Text Only | Print | Product List | Glossary On
Versions: 1 2 3 4 5 6 7 8 9 10 11 12 13 14 15 16 17 18 19 20 21 22 23 24 25 26 27 28 29 30 31 32 33 34 35 36 37 38 39 40 41 42 43 44 45 46 47 48 49 50
000
ASUS44 KMAF 241910
RWRMAF
MIDLAND AREA WEATHER ROUNDUP
NATIONAL WEATHER SERVICE MIDLAND TX
200 PM CDT THU MAY 24 2018

...IN SOUTHWEST TEXAS AND SOUTHEAST NEW MEXICO...

CITY           SKY/WX    TMP DP  RH WIND       PRES   REMARKS
ALPINE         SUNNY     81  60  48 N6        30.23F
ANDREWS        FAIR      85  60  42 S8        30.12F
ARTESIA        SUNNY     84  55  37 S10       30.11F
BIG SPRING     MOSUNNY   85  62  45 S14G22    30.12F
CARLSBAD       MOSUNNY   83  56  39 MISG      30.09F
DRYDEN           N/A     91  63  39 E10G17    30.03F
FORT STOCKTON    N/A     83  63  50 S9        30.10F
GUAD PASS      SUNNY     83  54  36 NE7       30.23F
HOBBS          SUNNY     82  57  42 SE10G16   30.13F
LAMESA         CLOUDY    86  61  42 S14G23    30.12F
MARFA          SUNNY     85  51  31 MISG      30.20F
MIDLAND AIRPK    N/A     91  58  33 SE12      30.10F
MIDLAND INTL   MOSUNNY   88  62  41 S16G23    30.09F
ODESSA         MOSUNNY   86  60  41 S12G20    30.11F
PECOS          SUNNY     86  57  37 SE5       30.07F
PRESIDIO       FAIR      92  56  29 E3        30.06F
SEMINOLE       SUNNY     85  59  41 S7        30.13F
SNYDER         MOSUNNY   85  64  49 S7G18     30.10F
WINK           NOT AVBL
$$
...OTHER STATIONS IN TEXAS...

CITY           SKY/WX    TMP DP  RH WIND       PRES   REMARKS
ABILENE        MOSUNNY   88  62  41 S8G17     30.06F
AMARILLO       SUNNY     86  55  34 SW12G25   30.10F
AUSTIN         PTSUNNY   90  71  53 VRB5      30.04F
BROWNSVILLE    LGT RAIN  88  72  58 E10       29.99F
CORPUS CHRISTI MOSUNNY   90  75  61 E12       30.00F HX 100
DALLAS FTW     PTSUNNY   85  66  53 S9        30.04F
DEL RIO        MOSUNNY   91  68  46 SE10G21   30.01F
EL PASO        MOSUNNY   90  32  12 CALM      30.10F
HOUSTON INT    PTSUNNY   89  72  56 E7        30.03F
LUBBOCK        MOSUNNY   86  57  37 SW17G24   30.10F
SAN ANGELO     MOSUNNY   86  66  51 S7        30.08F
SAN ANTONIO    PTSUNNY   90  65  43 VRB7      30.05F
WACO           SUNNY     87  66  49 VRB7      30.06F
WICHITA FALLS  PTSUNNY   79  70  74 E9        30.05F
$$
...OTHER LOCATIONS IN NEW MEXICO...

CITY           SKY/WX    TMP DP  RH WIND       PRES   REMARKS
ALAMOGORDO     SUNNY     88  36  15 S6        30.13F
ALBUQUERQUE    MOSUNNY   81  26  13 NW6       30.20F
CANNON AFB     MOSUNNY   81  56  41 SW13      30.15F
CLOVIS         SUNNY     81  56  42 SW14G21   30.15F
HOLLOMAN AFB   MOSUNNY   93  37  14 SW5       30.14F
ROSWELL        SUNNY     84  53  34 SW8       30.11F
RUIDOSO        MOSUNNY   75  41  29 SE9G16    30.31S
SANTA FE       SUNNY     79  22  12 SW9G21    30.25F
TRUTH OR CONSE SUNNY     86  14   7 SE10G20   30.15F
TUCUMCARI      SUNNY     85  54  34 S10G20    30.09F
$$




USA.gov is the U.S. government's official web portal to all federal, state and local government web resources and services.